Yemaneberhan Crippa

G.S. FIAMME ORO PADOVA
15-10-1996


Informazioni sul tesseramento aggiornate al 2016


Condividi con
Seguici su:


È nato a Wollo (Etiopia) il 15 ottobre 1996, 1.74x53kg
Società: Fiamme Oro Padova
Allenatore: Massimo Pegoretti

La guerra civile in Etiopia lo ha strappato alla sua famiglia, originaria del Nord-Est del Paese, e lo ha portato in un orfanotrofio di Addis Abeba, dove è stato adottato da bambino con i fratelli da una coppia milanese (Roberto e Luisa Crippa). La nuova famiglia si è stabilita in Trentino, a Montagne (presso Tione), dove Yemaneberhan (il nome in amarico significa “il braccio destro di Dio”) ha prima giocato a calcio e finalmente è stato avviato alla corsa nell’Atletica Valchiese dal compianto tecnico Marco Borsari. Dopo la scomparsa del suo primo allenatore, “Yeman” è stato seguito da Massimo Pegoretti, ex mezzofondista delle Fiamme Azzurre. Crippa ha primeggiato in tutte le categorie e su tutti i terreni: dalla corsa in montagna (ha vinto in Irlanda nel 2012 la WMRA Youth Cup, una sorta di Mondiale allievi della disciplina) alla corsa campestre (ancora allievo, ha contribuito nel 2013 al 6° posto mondiale della squadra junior azzurra, miglior piazzamento per una formazione europea) e alla pista. Anche il fratello maggiore Nekagenet è azzurro giovanile in tutte le specialità della corsa. Ha frequentato l’istituto alberghiero, nel giugno 2014 è stato reclutato dalle Fiamme Oro e a dicembre ha conquistato l’oro juniores, individuale e a squadre, agli Europei di cross in Bulgaria. Un titolo confermato a Hyères nella stagione 2015, in cui ha vinto anche il bronzo europeo under 20 nei 5000 metri.

Curriculum (1500m): NC: 3 (16, 3000m ind. 16, cross 16); WJC: 2014 (10); EJC: 2015 (3); WYC: 2013 (6); WCCC: 2013 (38jr, 6T/U20), 2015 (20jr, 8T/U20); ECCC: 2012 (32jr, 6T/U20), 2013 (7jr, 3T/U20), 2014 (1jr, 1T/U20), 2015 (1jr, 2T/U20).

 

60 piani

Anno Data Tipo Cr. Cat. Piazz. Prestaz. Vento Città  
200812/07PERM2 su- 1 8.96Castelnovo Monti
 

400 metri

Anno Data Tipo Cr. Cat. Piazz. Prestaz. Vento Città  
201317/09PEAM2 se- 2 51.76Trento
 

600 metri

Anno Data Tipo Cr. Cat. Piazz. Prestaz. Vento Città  
201320/04PEAM3 se- 1 1:24.67Rovereto
201119/07PECM1 se- 1 1:25.48Trento
201027/07PECM1 se- 1 1:26.45Trento
201221/04PEAM6 se- 1 1:26.67Trento
200921/07PERM1 se- 1 1:30.78Trento
201103/09PECM1 su- 1 1:32.43Trento
200822/07PERM1 se- 1 1:37.86Trento
200729/09PEEM1 su- 1 1:44.87Bolzano
200724/07PEEM1 se- 2 1:56.73Trento
 

800 metri

Anno Data Tipo Cr. Cat. Piazz. Prestaz. Vento Città  
201630/04PEPM2 su- 1 1:50.16Trento
201330/07PEAM9 se- 1 1:51.60Trento
201431/05PEJM2 se- 1 1:51.93Caprino Veronese
201322/09PEAM2 se- 1 1:52.70Bellinzona
201301/05PEAM3 se- 1 1:52.88Trento
201527/05PEJM3 se- 1 1:52.95Treviso
201510/05PEJM2 se- 1 1:53.46Borgo Valsugana
201315/06PEAM1 se- 1 1:54.58Cles
201401/05PEJM6 se- 4 1:55.22Trento
201231/07PEAM4 se- 3 1:56.92Trento
201214/07PEAM3 su- 1 1:57.20Velletri
201221/07PEAM3 se- 3 1:57.37Pergine Valsugana
201211/09PEAM2 se- 1 1:57.68Trento
201229/06PEAM1 se- 3 1:58.19Rovereto
201305/05PEAM1 su- 1 1:59.23Bolzano
201212/05PEAM1 su- 1 2:02.54Cles
 

1000 metri

Anno Data Tipo Cr. Cat. Piazz. Prestaz. Vento Città  
201324/02IEAM5 se- 2 2:32.88Ancona
201219/02IEAM5 se- 3 2:34.99Ancona
201112/06PECM1 se- 2 2:35.71Fidenza
201003/08PECM1 se- 1 2:37.93Trento
201010/06PECM1 fi- 1 2:39.23Roma
201107/05PECM2 su- 1 2:42.60Cles
200928/07PERM1 se- 1 2:42.99Trento
200927/05PERM1 fi- 1 2:44.30Rieti
200805/08PERM1 se- 1 2:46.54Trento
200904/08PERM1 se- 1 2:47.49Trento
200815/06PERM2 su- 1 2:50.62Marostica
201009/06PECM1 ba- 1 2:51.46Roma
200926/05PERM1 ba- 3 2:52.20Rieti
200827/09PERM1 su- 1 2:53.57Bolzano
200807/06PERM1 su- 1 2:56.76Arco
200812/07PERM1 su- 1 3:00.04Castelnovo Monti
200919/09PERM1 su- 1 3:04.67Trento
 

1500 metri

Anno Data Tipo Cr. Cat. Piazz. Prestaz. Vento Città  
201617/07PEPM7 su- 1 3:38.37Padova
201620/05PEPM8 se- 1 3:38.95Ostrava
201627/05PEPM5 se- 1 3:40.45Dessau
201422/07PEJM4 ba- 1 3:43.44Eugene
201524/06PEJM3 se- 3 3:43.70Conegliano
201504/06PEJM1 ex- 1 3:44.28Roma
201314/07PEAM6 fi- 1 3:45.02Donetsk
201626/06PEPM1 se- 2 3:45.25Rieti
201517/05PEJM8 se- 2 3:45.37Gavardo
201418/05PEJM1 su- 1 3:46.03Gavardo
201424/07PEJM10 fi- 1 3:47.16Eugene
201311/07PEAM4 ba- 3 3:50.58Donetsk
201306/06PEAM3 su- 1 3:51.07Roma
201507/02IEJM1 se- 2 3:51.43Ancona
201528/02IEJM1 se- 1 3:51.51Lione
201408/06PEJM1 su- 1 3:53.39Torino
201311/05PEAM1 su- 1 3:54.93Bressanone
201305/10PEAM1 se- 2 3:57.99Jesolo
201425/05PEJM1 su- 1 3:58.85Caorle
201319/05PEAM2 su- 1 3:59.38Bressanone
201004/06PECM4 su- 1 3:59.57Trento
201218/09PEAM1 su- 1 3:59.64Trento
201206/06PEAM4 su- 1 4:03.88Cles
201023/05PECM1 su- 1 4:05.29Bressanone
201227/05PEAM6 su- 1 4:08.09Bressanone
 

2000 metri

Anno Data Tipo Cr. Cat. Piazz. Prestaz. Vento Città  
201214/04PEAM3 se- 1 5:30.80Rovereto
201108/10PECM1 se- 2 5:34.15Jesolo
201129/05PECM1 su- 1 5:36.38Borgo Valsugana
201124/09PECM1 su- 1 5:37.50Trento
201009/10PECM1 se- 2 5:42.43Cles
201013/06PECM1 su- 1 5:42.70Fidenza
201010/08PECM1 se- 1 5:47.70Trento
201102/08PECM1 se- 1 5:54.08Trento
201011/09PECM1 su- 1 6:14.28Brunico
 

3000 metri

Anno Data Tipo Cr. Cat. Piazz. Prestaz. Vento Città  
201606/03IEPM1 su- 1 7:57.25Ancona
201420/06PEJM2 se- 1 8:09.89Conegliano
201409/09PEJM1 su- 1 8:10.94Trento
201306/08PEAM3 se- 6 8:12.00Trento
201508/08PEJM1 se- 1 8:17.72Rio De Janeiro
201315/09PEAM1 su- 1 8:26.98Bressanone
201230/09PEAM1 se- 2 8:42.63Firenze
201224/07PEAM5 su- 1 8:50.42Trento
 

5000 metri

Anno Data Tipo Cr. Cat. Piazz. Prestaz. Vento Città  
201606/06PEPM7 se- 1 13:36.55Bellinzona
201610/07PEPM8 su- 1 13:46.30Amsterdam
201517/06PEJM1 su- 1 13:58.31Gorizia
201513/06PEJM1 su- 1 14:14.45Rieti
201420/09PEJM1 se- 1 14:22.17Landquart
201403/09PEJM1 se- 1 14:24.49Rodengo Saiano
201518/07PEJM3 su- 1 14:35.39Eskilstuna
201504/10PEJM1 su- 1 14:44.33Caorle
201507/06PEJM3 su- 1 14:47.03Rovigo
 

Corsa strada Km 10

Anno Data Tipo Cr. Cat. Piazz. Prestaz. Vento Città  
201610/04SEPM3 su- 1 29:40Torino
 

300 Hs H 76

Anno Data Tipo Cr. Cat. Piazz. Prestaz. Vento Città  
201009/05PECM4 su- 1 44.06Trento
 

Salto in alto/HJ

Anno Data Tipo Cr. Cat. Piazz. Prestaz. Vento Città  
201009/05PCM5 su- 1 1.40Trento
 

Salto in lungo/LJ

Anno Data Tipo Cr. Cat. Piazz. Prestaz. Vento Città  
200919/09PRM3 su- 1 4.86Trento
 

Vortex

Anno Data Tipo Cr. Cat. Piazz. Prestaz. Vento Città  
200807/06PRM2 su- 1 53.62Arco
200729/09PEM1 su- 1 50.85Bolzano
200827/09PRM4 su- 1 50.65Bolzano
 

Attenzione: le schede-atleti sono composte automaticamente sulla base dei dati inseriti all'interno degli archivi nazionali aggiornati dal 2005 al 04-12-2016. Se un risultato non compare nelle graduatorie, quindi, è segno che lo stesso, con ogni probabilità, non è stato ancora inserito. Il processo di inserimento è di competenza dei Comitati Regionali sul cui territorio ha avuto luogo la manifestazione: eventuali segnalazioni per errori od omissioni, vanno dunque indirizzate agli stessi (potete utilizzare l'elenco con relativi contatti). Considerato però che solo le principali manifestazioni nazionali sono oggetto di inserimenti "in diretta" (sul posto di gara), mentre le altre, incluse le internazionali in programma all'estero, vengono inserite in tempi successivi, è opportuno attendere un ragionevole lasso di tempo prima di procedere ad una segnalazione.

Stickers


Non ventosi

GaraTipoPrestazioneVentoAnnoCittà
60 pianiPista 8.962008Castelnovo Monti
400 metriPista 51.762013Trento
600 metriPista 1:24.672013Rovereto
800 metriPista 1:50.162016Trento
1000 metriIndoor 2:32.882013Ancona
1000 metriPista 2:35.712011Fidenza
1500 metriPista 3:38.372016Padova
1500 metriIndoor 3:51.432015Ancona
2000 metriPista 5:30.802012Rovereto
3000 metriIndoor 7:57.252016Ancona
3000 metriPista 8:09.892014Conegliano
5000 metriPista 13:36.552016Bellinzona
Corsa strada Km 10Strada 29:402016Torino
300 Hs H 76Pista 44.062010Trento
Salto in alto/HJPista 1.402010Trento
Salto in lungo/LJPista 4.862009Trento
VortexPista 53.622008Arco

17 Giugno 2015
Gorizia: Crippa 13:58.31, Riparelli 10.37

Il campione europeo di cross scende per la prima volta in carriera sotto i 14 minuti nei 5000 metri

13 Dicembre 2015
Crippa: ''La conferma che volevo''

Il 19enne azzurrino si racconta dopo la sua seconda vittoria consecutiva agli Europei di corsa campestre

21 Dicembre 2015
Online l'ultimo numero di ''Atletica''

Pronto per il download il numero 5-6/2015 della rivista federale

14 Gennaio 2016
Cross: Crippa corre in Irlanda

Il due volte campione europeo junior di cross sabato al via del Cross Internazionale di Antrim. Domenica, in dieci sedi, prosegue la fase regionale dei Societari.

16 Gennaio 2016
Cross: Crippa tredicesimo ad Antrim

Il giovane mezzofondista delle Fiamme Oro in trasferta in Irlanda del Nord

21 Febbraio 2016
Festa del Cross: le parole dei campioni

Le video-interviste ai protagonisti della rassegna nazionale di corsa campestre a Gubbio

20 Maggio 2016
Crippa e Magnani OK sui 1500 di Ostrava

Al Golden Spike il bicampione europeo junior di cross si migliora a 3:38.95, la cesenate quarta in 4:08.73. Solo Bolt sui 100 metri: 9.98 per il fulmine giamaicano.

27 Maggio 2016
Dessau: Crippa quinto nei 1500

In Germania, il mezzofondista delle Fiamme Oro conclude la sua prova in 3:40.95

06 Giugno 2016
Zenoni è record: 2:01.91 a Bellinzona

La 17enne corre il miglior tempo mondiale dell'anno fra le allieve e diventa la terza junior italiana di sempre. Sempre in Svizzera Yeman Crippa demolisce il personale sui 5000 con 13:36.65. 

25 Luglio 2016
Yeman Crippa atteso a Castelbuono

Nella classica prova siciliana in onore di Santa Anna, Yeman Crippa si misurerà sui 10km su strada in una delle ultime gare di questa prima parte di stagione

26 Luglio 2016
Crippa protagonista, secondo a Castelbuono

Nella classica gara su strada siciliana, il giovane mezzofondista delle Fiamme Oro preceduto soltanto dal ruandese Muhitira, per un piazzamento che mancava a un italiano dal 1996 con Panetta

27 Luglio 2016
Super Yeman a Castelbuono

Grande prova per l'allievo di Massimo Pegoretti che chiude al secondo posto la classicissima gara palermitana

27 Novembre 2016
Cross: Crippa e Inglese tra i primi otto in Spagna

Ad Alcobendas è settimo il ventenne delle Fiamme Oro, secondo tra gli europei. Ottava la pugliese dell’Esercito nella gara femminile. A Tilburg (Olanda), quinto Rachik.

AnnoTipo mov.CategoriaSocietà
2016RinnovoPromesse MaschileG.S. FIAMME ORO PADOVA
2015RinnovoJuniores MaschileG.S. FIAMME ORO PADOVA
2014TrasferimentoJuniores MaschileG.S. FIAMME ORO PADOVA
2014RinnovoJuniores MaschileGS VALSUGANA TRENTINO
2013RinnovoAllieviGS VALSUGANA TRENTINO
2012TrasferimentoAllieviGS VALSUGANA TRENTINO
2011RinnovoCadettiS.A. VALCHIESE
2010RinnovoCadettiS.A. VALCHIESE
2009RinnovoRagazzi MaschileS.A. VALCHIESE
2008RinnovoRagazzi MaschileS.A. VALCHIESE
2007NuovoEsordienti MaschileS.A. VALCHIESE
AnnoInizioFineTipoDenominazione
201611-1211-12NazionaleCAMPIONATI EUROPEI CROSS - CHIA
201617-1023-10RadunoMezzofondo (Cross) - Castelporziano (RM)
201606-0710-07NazionaleCampionati Europei - Amsterdam (NED)
201629-0604-07RadunoMezzofondo - FAI DELLA PAGANELLA (TN)
201615-0425-04RadunoMezzofondo - Grosseto
201605-0414-04RadunoMezzofondo - Modena
201613-0123-01RadunoMezzofondo/Maratona
201513-1213-12NazionaleCampionati Europei di Cross - Hyeres (FRA)
201501-1217-12RadunoMezzofondo - Tirrenia
201510-1118-11RadunoMezzofondo - Tirrenia
201517-0426-04RadunoMezzofondo - Bussolengo
201518-0124-01RadunoMezzofondo-Progetto Maratona - Grosseto
201414-1214-12NazionaleCampionati Europei di Cross - Samokov (BUL)
201403-1208-11RadunoMezzofondo-Cross - Monza
201422-0727-07NazionaleCampionati Mondiali Juniores - Eugene (USA)
201416-0419-04RadunoNazionale Mezzofondo - Formia
201326-1230-12RadunoNazionale Giovanile - Formia
201308-1208-12NazionaleEuropei Cross - Belgrado (SRB)
201310-0714-07NazionaleCamp. Mondiale Allievi/e - Donetsk (UKR)
201324-0324-03NazionaleCampionati Mondiali di Cross - Bydgoszcz (POL)
201302-0105-01RadunoNazionale Giovanile - Formia
201209-1209-12NazionaleCampionati Europei Cross - Budapest (HUN)
201204-0407-04RadunoNazionale Giovanile Mezzofondo - San Vincenzo